OBJECT B (43828 NORAD) Tracking and Keplerian Element Data

This shows tracking and keplerian element data for the satellite.

Feedback or suggestion? Click here.




ElementValue
Catalog43828
NameOBJECT B
Epoch Orbit79
Epoch Day344.67052576
Epoch Year2018
RAAN217.7185
Inclination51.6382
Eccentricity0.0040036
Argument of Perigee71.3387
Mean Anonmoly290.222
Mean Motion16.25621544
Decay Rate0.0690671
L11 43828U 18101B 18344.67052576 .06906710 12133-4 17517-2 0 9990
L22 43828 51.6382 217.7185 0040036 71.3387 290.2220 16.25621544 794

Live tracking and technical data element details for OBJECT B (NORAD 43828). OBJECT B can be tracked NOW for your location showing map with azimuth and elevation plus other details from your city location.

Track the satellite on the map from your city or location and see movement details for azimuth, elevation, latitude, longitude, range, height, and movement on the map or in text.







IsCatalogInMostPopularTable: catalog: 43828, numindb: 1
Update: records affected: 1



GetName: 43828 OBJECT B

Hit Count: updated at: Tue, 11 Dec 2018 03:33:29 GMT